FW8937 Weather Reports


Display with metric or nautical units.
time (UTC)temp
F
wind
direction
speed
MPH
gust
MPH
rain 1hr
in
rain 24hr
in
rain mn
in
humidity
%
barometer
mb
20220814221524 64 181 10.0 24.0 0.00 0.08 0.00 52 1027.3
20220814221250 64 228 8.0 24.0 0.00 0.08 0.00 56 1027.3
20220814220513 65 0 4.0 11.0 0.00 0.08 0.00 54 1027.2
20220814220013 64 178 7.0 11.0 0.00 0.08 0.00 56 1026.7
20220814215513 63 209 7.0 11.0 0.00 0.08 0.00 58 1027.2
20220814215245 63 208 6.0 10.0 0.00 0.08 0.00 63 1027.3
20220814214518 62 308 4.0 10.0 0.00 0.08 0.00 59 1027.6
20220814214513 62 250 5.0 10.0 0.00 0.08 0.00 62 1027.6
20220814213908 62 277 3.0 8.0 0.00 0.08 0.00 62 1028.1
20220814213758 62 312 5.0 8.0 0.00 0.08 0.00 61 1027.7
20220814213423 62 298 2.0 3.0 0.00 0.08 0.00 61 1028.2
20220814212917 63 298 3.0 6.0 0.00 0.08 0.00 59 1028.3
20220814211514 62 300 5.0 11.0 0.00 0.08 0.00 56 1028.5
20220814211012 61 220 9.0 16.0 0.00 0.08 0.00 59 1028.6
20220814210509 61 244 12.0 22.0 0.00 0.08 0.00 62 1028.9
20220814210009 61 259 11.0 22.0 0.00 0.08 0.00 60 1029.0
20220814205508 62 301 10.0 17.0 0.00 0.08 0.00 59 1029.0
20220814205246 62 0 10.0 20.0 0.00 0.08 0.00 56 1029.0
20220814205009 62 201 12.0 19.0 0.00 0.08 0.00 57 1029.0
20220814204016 61 169 12.0 20.0 0.00 0.08 0.00 61 1028.9
20220814204010 62 221 11.0 20.0 0.00 0.08 0.00 57 1029.1
20220814203509 61 165 12.0 20.0 0.00 0.08 0.00 59 1029.0
20220814202630 62 158 13.0 22.0 0.00 0.08 0.00 61 1028.6
20220814202518 61 191 13.0 21.0 0.00 0.08 0.00 64 1028.7
20220814202250 62 180 14.0 22.0 0.00 0.08 0.00 62 1028.6
20220814201022 64 0 11.0 19.0 0.00 0.08 0.00 59 1028.6
20220814201010 63 0 11.0 21.0 0.00 0.08 0.00 61 1028.9
20220814200911 65 193 10.0 19.0 0.00 0.08 0.00 54 1028.7
20220814195740 65 161 7.0 14.0 0.00 0.08 0.00 50 1028.6
20220814195240 65 159 8.0 14.0 0.00 0.08 0.00 51 1028.6
20220814194509 65 162 8.0 14.0 0.00 0.08 0.00 52 1028.5
20220814194406 65 171 8.0 12.0 0.00 0.08 0.00 61 1028.5
20220814194301 65 171 8.0 13.0 0.00 0.08 0.00 58 1028.6
20220814193016 67 186 3.0 9.0 0.00 0.08 0.00 61 1028.9
20220814193011 65 191 8.0 14.0 0.00 0.08 0.00 62 1028.7
20220814192509 66 190 6.0 14.0 0.00 0.08 0.00 64 1028.9
20220814192123 68 140 3.0 7.0 0.00 0.08 0.00 57 1028.9
20220814191002 68 111 5.0 12.0 0.00 0.08 0.00 56 1028.9
20220814190722 70 112 5.0 11.0 0.00 0.08 0.00 52 1028.7
20220814190558 69 87 6.0 12.0 0.00 0.08 0.00 55 1028.7
20220814185835 71 88 4.0 11.0 0.00 0.08 0.00 52 1028.7
20220814185736 71 144 4.0 11.0 0.00 0.08 0.00 51 1028.9
20220814184934 71 67 4.0 10.0 0.00 0.08 0.00 50 1028.9
20220814184157 71 74 4.0 10.0 0.00 0.08 0.00 50 1028.9
20220814183648 73 77 5.0 11.0 0.00 0.08 0.00 46 1029.0
20220814183523 72 62 5.0 10.0 0.00 0.08 0.00 48 1029.0
20220814182407 73 119 6.0 16.0 0.00 0.08 0.00 44 1029.0
20220814181900 75 74 7.0 16.0 0.00 0.08 0.00 41 1028.9
20220814181626 80 0 6.0 15.0 0.00 0.08 0.00 39 1028.9
20220814181222 80 122 6.0 15.0 0.00 0.08 0.00 43 1028.9
20220814181116 77 100 6.0 15.0 0.00 0.08 0.00 46 1028.9
20220814175837 78 76 6.0 12.0 0.00 0.08 0.00 43 1029.0
20220814175331 78 38 5.0 12.0 0.00 0.08 0.00 44 1029.0
20220814174825 75 116 3.0 9.0 0.00 0.08 0.00 48 1028.9
20220814174319 75 99 4.0 9.0 0.00 0.08 0.00 45 1029.0
20220814173813 77 71 6.0 13.0 0.00 0.08 0.00 43 1028.9
20220814173808 76 115 4.0 13.0 0.00 0.08 0.00 42 1028.9
20220814172801 76 71 5.0 12.0 0.00 0.08 0.00 44 1029.0
20220814172255 76 49 5.0 12.0 0.00 0.08 0.00 42 1029.0
20220814171749 77 98 4.0 10.0 0.00 0.08 0.00 41 1029.1
20220814171243 78 71 4.0 11.0 0.00 0.08 0.00 39 1029.1
20220814171005 77 91 4.0 9.0 0.00 0.08 0.00 40 1029.1
20220814170837 77 86 4.0 11.0 0.00 0.08 0.00 42 1029.1
20220814165956 77 80 3.0 8.0 0.00 0.08 0.00 43 1029.3
20220814165219 75 96 3.0 8.0 0.00 0.08 0.00 42 1029.3
20220814164945 75 48 4.0 9.0 0.00 0.08 0.00 44 1029.3
20220814164207 75 68 4.0 10.0 0.00 0.08 0.00 45 1029.3
20220814163701 74 87 3.0 10.0 0.00 0.08 0.00 43 1029.1
20220814163422 74 43 4.0 11.0 0.00 0.08 0.00 47 1029.3
20220814163257 74 91 4.0 11.0 0.00 0.08 0.00 46 1029.3
20220814162416 74 150 4.0 8.0 0.00 0.08 0.00 40 1029.1
20220814162139 74 303 5.0 10.0 0.00 0.08 0.00 44 1029.3
20220814161131 73 306 6.0 13.0 0.00 0.08 0.00 48 1029.3
20220814160629 73 55 5.0 11.0 0.00 0.08 0.00 45 1029.1
20220814160625 73 290 5.0 13.0 0.00 0.08 0.00 45 1029.3
20220814160119 73 303 5.0 11.0 0.00 0.08 0.00 44 1029.3
20220814155743 72 325 6.0 14.0 0.00 0.08 0.00 48 1029.3
20220814155343 72 277 5.0 12.0 0.00 0.08 0.00 44 1029.1
20220814154842 72 284 6.0 14.0 0.00 0.08 0.00 43 1029.3
20220814154214 72 296 5.0 11.0 0.00 0.08 0.00 47 1029.3
20220814153052 71 324 6.0 11.0 0.00 0.08 0.00 49 1029.3
20220814152823 71 304 6.0 12.0 0.00 0.08 0.00 51 1029.5
20220814152713 70 250 5.0 12.0 0.00 0.08 0.00 45 1029.6
20220814152458 70 234 4.0 9.0 0.00 0.08 0.00 46 1029.5
20220814151954 69 299 4.0 9.0 0.00 0.08 0.00 48 1029.6
20220814150821 69 321 3.0 9.0 0.00 0.08 0.00 50 1029.6
20220814150050 67 305 2.0 6.0 0.00 0.08 0.00 52 1029.6
20220814145822 65 138 2.0 6.0 0.00 0.08 0.00 57 1029.6
20220814145321 64 155 2.0 6.0 0.00 0.08 0.00 60 1029.6
20220814144550 65 173 2.0 8.0 0.00 0.08 0.00 62 1029.6
20220814144050 65 96 2.0 8.0 0.00 0.08 0.00 58 1029.6
20220814143549 67 235 4.0 12.0 0.00 0.08 0.00 52 1029.5
20220814143051 66 349 7.0 12.0 0.00 0.08 0.00 50 1029.4
20220814142551 65 309 6.0 12.0 0.00 0.08 0.00 52 1029.3
20220814142052 64 273 6.0 11.0 0.00 0.08 0.00 58 1029.3
20220814141551 62 291 4.0 10.0 0.00 0.08 0.00 58 1029.3
20220814141320 60 231 1.0 7.0 0.00 0.08 0.00 64 1029.3
20220814140937 59 76 0.0 2.0 0.00 0.08 0.00 67 1029.4
20220814140827 59 76 0.0 2.0 0.00 0.08 0.00 68 1029.3
20220814135821 58 76 0.0 1.0 0.00 0.08 0.00 69 1029.3
20220814135050 58 76 0.0 2.0 0.00 0.08 0.00 67 1029.3
20220814134549 58 76 1.0 2.0 0.00 0.08 0.00 67 1029.3
20220814134327 58 76 0.0 2.0 0.00 0.08 0.00 67 1029.3
20220814134050 58 76 0.0 2.0 0.00 0.08 0.00 67 1029.3
20220814133050 58 76 1.0 3.0 0.00 0.08 0.00 69 1029.3
20220814132551 58 76 0.0 3.0 0.00 0.08 0.00 67 1029.4
20220814132055 57 76 2.0 5.0 0.00 0.08 0.00 70 1029.4
20220814132050 58 76 1.0 3.0 0.00 0.08 0.00 67 1029.3
20220814131054 57 30 1.0 3.0 0.00 0.08 0.00 68 1029.3
20220814131049 58 76 2.0 5.0 0.00 0.08 0.00 68 1029.4
20220814130050 57 30 2.0 3.0 0.00 0.08 0.00 68 1029.1
20220814125550 57 30 2.0 5.0 0.00 0.08 0.00 66 1029.1
20220814125452 56 323 4.0 8.0 0.00 0.08 0.00 65 1029.1
20220814125341 57 30 3.0 7.0 0.00 0.08 0.00 65 1029.1
20220814124033 55 288 4.0 8.0 0.00 0.08 0.00 68 1029.0
20220814123524 57 342 5.0 6.0 0.00 0.08 0.00 63 1029.1
20220814122747 58 347 4.0 8.0 0.00 0.08 0.00 61 1029.0
20220814122510 58 327 4.0 8.0 0.00 0.08 0.00 60 1029.0
20220814121502 59 342 4.0 7.0 0.00 0.08 0.00 58 1029.0
20220814121225 59 321 5.0 8.0 0.00 0.08 0.00 58 1028.9
20220814120724 59 317 5.0 9.0 0.00 0.08 0.00 58 1029.0
20220814115942 60 304 6.0 10.0 0.00 0.08 0.00 57 1028.9
20220814115436 60 313 7.0 10.0 0.00 0.08 0.00 56 1028.9
20220814114930 60 311 7.0 10.0 0.00 0.08 0.00 56 1028.7
20220814114424 61 0 8.0 12.0 0.00 0.08 0.00 54 1028.7
20220814113918 61 285 9.0 16.0 0.00 0.08 0.00 54 1028.6
20220814113705 61 263 10.0 15.0 0.00 0.08 0.00 55 1028.3
20220814113425 60 252 10.0 16.0 0.00 0.08 0.00 55 1028.3
20220814112756 61 252 10.0 13.0 0.00 0.08 0.00 55 1028.2
20220814111721 61 282 9.0 13.0 0.00 0.08 0.00 56 1028.3
20220814111626 60 280 10.0 13.0 0.00 0.08 0.00 55 1028.3
20220814110606 60 0 10.0 13.0 0.00 0.08 0.00 57 1028.3
20220814105830 60 0 9.0 13.0 0.00 0.08 0.00 57 1028.3
20220814105555 60 264 7.0 12.0 0.00 0.08 0.00 57 1028.3
20220814105051 59 276 4.0 10.0 0.00 0.08 0.00 58 1028.3
20220814104815 60 304 1.0 4.0 0.00 0.08 0.00 57 1028.5
20220814104039 60 255 0.0 2.0 0.00 0.08 0.00 56 1028.5
20220814103802 61 256 1.0 8.0 0.00 0.08 0.00 54 1028.5
20220814103425 60 257 3.0 8.0 0.00 0.08 0.00 57 1028.5
20220814103028 60 254 5.0 10.0 0.00 0.08 0.00 57 1028.5
20220814102009 62 264 8.0 11.0 0.00 0.08 0.00 53 1028.3
20220814101843 62 252 7.0 10.0 0.00 0.08 0.00 53 1028.5
20220814100737 61 288 8.0 12.0 0.00 0.08 0.00 53 1028.3
20220814100731 61 249 8.0 12.0 0.00 0.08 0.00 54 1028.3
20220814095718 62 282 8.0 12.0 0.00 0.08 0.00 53 1028.5
20220814095442 62 302 8.0 12.0 0.00 0.08 0.00 52 1028.3
20220814094707 62 264 7.0 10.0 0.00 0.08 0.00 54 1028.5
20220814094702 62 265 6.0 10.0 0.00 0.08 0.00 53 1028.5
20220814093654 62 276 6.0 9.0 0.00 0.08 0.00 56 1028.3
20220814093148 62 263 6.0 9.0 0.00 0.08 0.00 53 1028.3
20220814092643 62 263 6.0 9.0 0.00 0.08 0.00 53 1028.3
20220814092136 62 255 6.0 9.0 0.00 0.08 0.00 53 1028.3
20220814091902 62 254 5.0 9.0 0.00 0.08 0.00 53 1028.3
20220814091626 62 0 5.0 8.0 0.00 0.08 0.00 54 1028.5
20220814091119 62 255 5.0 8.0 0.00 0.08 0.00 54 1028.5
20220814090112 62 0 5.0 7.0 0.00 0.08 0.00 54 1028.5
20220814085608 62 259 4.0 7.0 0.00 0.08 0.00 57 1028.5
20220814085601 62 273 3.0 6.0 0.00 0.08 0.00 56 1028.6
20220814084740 62 262 3.0 6.0 0.00 0.08 0.00 58 1028.7
20220814084621 62 259 3.0 6.0 0.00 0.08 0.00 54 1028.6
20220814084102 62 254 3.0 6.0 0.00 0.08 0.00 55 1028.7
20220814082802 62 271 2.0 6.0 0.00 0.08 0.00 54 1028.7
20220814082356 62 261 1.0 4.0 0.00 0.08 0.00 52 1028.9
20220814082305 63 261 1.0 2.0 0.00 0.08 0.00 53 1028.9
20220814081637 62 261 1.0 2.0 0.00 0.08 0.00 58 1028.9
20220814081018 62 261 1.0 2.0 0.00 0.08 0.00 52 1028.9
20220814080250 61 261 2.0 3.0 0.00 0.08 0.00 54 1028.9
20220814075753 60 261 3.0 6.0 0.00 0.08 0.00 61 1029.1
20220814075517 60 261 3.0 4.0 0.00 0.08 0.00 57 1029.0
20220814074516 59 261 4.0 7.0 0.00 0.08 0.00 64 1029.0
20220814074016 59 262 4.0 7.0 0.00 0.08 0.00 63 1029.1
20220814073749 59 261 5.0 6.0 0.00 0.08 0.00 65 1029.1
20220814073018 59 271 5.0 8.0 0.00 0.08 0.00 63 1029.1
20220814072513 59 259 6.0 8.0 0.00 0.08 0.00 61 1029.0
20220814072013 59 258 6.0 8.0 0.00 0.08 0.00 63 1029.3
20220814071514 59 248 6.0 9.0 0.00 0.08 0.00 63 1029.1
20220814071024 58 254 6.0 9.0 0.00 0.08 0.00 64 1029.3
20220814070523 58 263 6.0 8.0 0.00 0.08 0.00 66 1029.3
20220814070255 58 263 5.0 8.0 0.00 0.08 0.00 65 1029.4
20220814065012 58 282 4.0 7.0 0.00 0.08 0.00 68 1029.3
20220814064745 58 286 4.0 7.0 0.00 0.08 0.00 68 1029.4
20220814064244 58 275 4.0 6.0 0.00 0.08 0.00 69 1029.5
20220814064139 58 267 4.0 6.0 0.00 0.08 0.00 70 1029.4
20220814063012 58 264 4.0 6.0 0.00 0.08 0.00 69 1029.5
20220814062906 58 0 4.0 7.0 0.00 0.08 0.00 70 1029.5
20220814062755 58 263 4.0 6.0 0.00 0.08 0.00 69 1029.5
20220814061742 58 0 4.0 7.0 0.00 0.08 0.00 70 1029.6
20220814061011 57 285 4.0 7.0 0.00 0.08 0.00 70 1029.6
20220814060511 57 257 4.0 7.0 0.00 0.08 0.00 68 1029.6
20220814060243 57 245 5.0 7.0 0.00 0.08 0.00 69 1029.6
20220814055509 56 231 5.0 7.0 0.00 0.08 0.08 73 1029.6
20220814055010 56 227 5.0 7.0 0.00 0.08 0.08 74 1029.6
20220814054510 55 227 5.0 7.0 0.00 0.08 0.08 77 1029.8
20220814054242 55 223 5.0 7.0 0.00 0.08 0.08 75 1029.8
20220814054131 55 244 5.0 7.0 0.00 0.08 0.08 77 1029.9
20220814053006 55 222 6.0 9.0 0.00 0.08 0.08 78 1029.9
20220814052506 55 215 7.0 9.0 0.00 0.08 0.08 80 1030.0
20220814052015 58 207 8.0 11.0 0.00 0.08 0.08 73 1030.0
20220814052007 56 204 7.0 9.0 0.00 0.08 0.08 80 1030.0
20220814051507 57 214 8.0 10.0 0.00 0.08 0.08 77 1030.0
20220814050737 59 209 9.0 14.0 0.00 0.08 0.08 68 1030.0
20220814050237 58 207 10.0 14.0 0.00 0.08 0.08 67 1030.0
20220814050129 57 218 10.0 13.0 0.00 0.08 0.08 72 1030.2
20220814045247 57 203 9.0 12.0 0.00 0.08 0.08 75 1030.4
20220814045007 57 213 9.0 12.0 0.00 0.08 0.08 74 1030.2
20220814044007 56 213 9.0 12.0 0.00 0.08 0.08 78 1030.6
20220814043501 56 206 9.0 14.0 0.00 0.08 0.08 79 1030.7
20220814043227 56 228 9.0 14.0 0.00 0.08 0.08 80 1030.7
20220814042449 56 202 9.0 13.0 0.00 0.08 0.08 82 1030.8
20220814041943 56 213 9.0 13.0 0.01 0.08 0.08 82 1030.8
20220814041708 56 202 9.0 13.0 0.01 0.08 0.08 81 1030.9
20220814040932 56 201 9.0 13.0 0.01 0.08 0.08 81 1030.9
20220814040424 56 200 9.0 14.0 0.01 0.08 0.08 83 1031.1
20220814040151 56 209 9.0 16.0 0.01 0.08 0.08 81 1031.2
20220814035510 56 199 10.0 18.0 0.03 0.08 0.08 81 1031.1
20220814035413 56 216 9.0 16.0 0.03 0.08 0.08 81 1031.1
20220814035147 56 219 12.0 20.0 0.03 0.08 0.08 80 1031.1
20220814034128 56 0 11.0 20.0 0.03 0.08 0.08 82 1031.1
20220814034016 55 207 11.0 19.0 0.03 0.08 0.08 82 1030.9
20220814033629 55 181 10.0 19.0 0.03 0.08 0.08 83 1030.9
20220814032613 55 205 12.0 23.0 0.02 0.07 0.07 85 1030.7
20220814032337 55 199 10.0 23.0 0.03 0.08 0.08 85 1030.9
20220814031828 55 207 13.0 24.0 0.02 0.07 0.07 84 1030.7
20220814031051 56 215 11.0 24.0 0.02 0.07 0.07 85 1030.8
20220814030815 56 223 10.0 16.0 0.03 0.07 0.07 84 1030.8
20220814030041 58 227 11.0 16.0 0.02 0.06 0.06 79 1030.8
20220814025528 59 234 15.0 23.0 0.02 0.05 0.05 73 1030.4
20220814025403 58 228 12.0 20.0 0.01 0.05 0.05 73 1030.6
20220814024520 58 284 16.0 23.0 0.03 0.05 0.05 72 1030.4
20220814023743 58 298 16.0 22.0 0.03 0.05 0.05 74 1030.4
20220814023240 58 309 16.0 24.0 0.03 0.05 0.05 75 1030.4
20220814023234 57 285 13.0 24.0 0.03 0.05 0.05 76 1030.4
20220814022459 56 281 12.0 18.0 0.03 0.05 0.05 81 1030.4
20220814022224 57 277 12.0 18.0 0.03 0.05 0.05 79 1030.4
20220814021716 56 251 11.0 17.0 0.03 0.05 0.05 82 1030.4
20220814020709 56 313 10.0 17.0 0.03 0.05 0.05 82 1030.4
20220814020704 56 297 9.0 12.0 0.02 0.04 0.04 83 1030.3
20220814015926 57 285 9.0 14.0 0.02 0.04 0.04 82 1030.0
20220814015421 59 294 12.0 23.0 0.02 0.04 0.04 76 1030.2
20220814014915 62 248 14.0 23.0 0.00 0.02 0.02 67 1030.0
20220814014137 63 208 12.0 19.0 0.00 0.02 0.02 57 1029.9
20220814013858 62 257 14.0 19.0 0.00 0.02 0.02 59 1029.8
20220814013733 62 263 13.0 19.0 0.00 0.02 0.02 56 1029.9
20220814013028 61 291 12.0 17.0 0.00 0.02 0.02 61 1029.6
20220814012927 62 293 13.0 19.0 0.00 0.02 0.02 59 1029.6
20220814012753 61 258 12.0 17.0 0.00 0.02 0.02 61 1029.6
20220814011731 61 284 12.0 18.0 0.01 0.02 0.02 63 1029.6
20220814011527 61 262 13.0 19.0 0.01 0.02 0.02 66 1029.8
20220814011404 60 296 12.0 19.0 0.01 0.02 0.02 65 1029.6
20220814005543 62 253 12.0 18.0 0.01 0.02 0.02 62 1029.5
20220814005039 62 260 13.0 20.0 0.01 0.02 0.02 63 1029.5
20220814005033 62 292 14.0 22.0 0.01 0.02 0.02 62 1029.6
20220814004027 61 241 14.0 23.0 0.02 0.02 0.02 63 1029.6
20220814004021 60 254 14.0 23.0 0.02 0.02 0.02 67 1029.6
20220814003515 59 252 14.0 19.0 0.02 0.02 0.02 72 1029.9
20220814002739 59 0 15.0 20.0 0.02 0.02 0.02 73 1029.8
20220814002636 58 257 15.0 20.0 0.02 0.02 0.02 76 1029.9
20220814001508 58 262 13.0 19.0 0.02 0.02 0.02 77 1029.9
20220814001243 59 0 13.0 20.0 0.01 0.01 0.01 76 1030.0
20220814001007 59 0 12.0 18.0 0.01 0.01 0.01 77 1029.9
20220814000008 60 0 11.0 20.0 0.01 0.01 0.01 76 1030.2
20220813235508 60 300 7.0 10.0 0.01 0.01 0.01 78 1030.0
20220813235008 60 304 5.0 9.0 0.01 0.01 0.01 75 1029.9
20220813234509 61 279 2.0 8.0 0.01 0.01 0.01 77 1030.2
20220813234240 61 194 3.0 8.0 0.00 0.00 0.00 79 1030.2
20220813233739 62 194 5.0 10.0 0.00 0.00 0.00 78 1030.2
20220813233626 63 263 5.0 10.0 0.00 0.00 0.00 72 1029.9
20220813232750 64 0 4.0 7.0 0.00 0.00 0.00 64 1030.0
20220813232018 65 254 4.0 7.0 0.00 0.00 0.00 57 1030.0
20220813231748 65 248 5.0 9.0 0.00 0.00 0.00 56 1029.9
20220813230507 65 208 6.0 11.0 0.00 0.00 0.00 57 1029.6
20220813230008 65 0 7.0 14.0 0.00 0.00 0.00 56 1029.9
20220813225508 66 225 6.0 14.0 0.00 0.00 0.00 55 1030.0
20220813225009 66 183 6.0 12.0 0.00 0.00 0.00 57 1030.0
20220813224739 66 205 8.0 15.0 0.00 0.00 0.00 57 1030.0
20220813224005 67 242 10.0 18.0 0.00 0.00 0.00 59 1030.2
20220813223503 68 0 8.0 18.0 0.00 0.00 0.00 57 1030.3
20220813222959 69 229 6.0 14.0 0.00 0.00 0.00 57 1030.3
20220813222730 69 0 5.0 14.0 0.00 0.00 0.00 55 1029.8
20220813222231 69 147 5.0 11.0 0.00 0.00 0.00 57 1029.8